Regional Weather Roundup
Issued by NWS

Home | Current Version | Previous Version | Graphics & Text | Print | Product List | Glossary On
Versions: 1 2 3 4 5 6 7 8 9 10 11 12 13 14 15 16 17 18 19 20 21 22 23 24 25 26 27 28 29 30 31 32 33 34 35 36 37 38 39 40 41 42 43 44 45 46 47 48 49 50
000
ASUS43 KOAX 280302
RWRNE

WEATHER ROUNDUP FOR NEBRASKA
NATIONAL WEATHER SERVICE OMAHA NE
1000 PM CDT SUN JUL 27 2014

NOTES: SATELLITE DATA IS BEING USED TO AUGMENT CLOUD COVER ABOVE
       12000 FEET.
       "FAIR" INDICATES FEW OR NO CLOUDS BELOW 12,000 FEET WITH NO
       SIGNIFICANT WEATHER AND/OR OBSTRUCTIONS TO VISIBILITY.

  * THESE STATIONS DO NOT REPORT WEATHER SUCH AS RAIN...SNOW OR FOG.

NEZ001>004-019>022-054>056-280400-
NEBRASKA PANHANDLE

CITY           SKY/WX    TMP DP  RH WIND       PRES   REMARKS
SCOTTSBLUFF    CLEAR     72  56  57 E8        30.27R
ALLIANCE       PTCLDY    69  49  48 E8        30.29R
CHADRON        PTCLDY    69  51  52 E9        30.27R
KIMBALL        MOCLDY    69  48  47 SE7       30.33R
SIDNEY         PTCLDY    71  45  39 SE6       30.32R
$$

NEZ057>060-069>072-079>082-280400-
SOUTHWEST NEBRASKA

CITY           SKY/WX    TMP DP  RH WIND       PRES   REMARKS
NORTH PLATTE   CLEAR     68  49  50 NE6       30.25R
IMPERIAL       MOCLDY    76  50  40 E7        30.27R
LEXINGTON      CLEAR     66  57  71 CALM      30.24R
MCCOOK         PTCLDY    73  54  51 E3        30.24R
OGALLALA       CLEAR     68  54  60 E5        30.27R
$$

NEZ005>010-023>029-035>040-094-280400-
NORTH CENTRAL NEBRASKA

CITY           SKY/WX    TMP DP  RH WIND       PRES   REMARKS
VALENTINE      CLEAR     70  51  51 NE8       30.27R
AINSWORTH      CLEAR     64  53  69 NE7       30.27R
BROKEN BOW     CLEAR     62  56  80 N6        30.25R
O`NEILL        CLEAR     66  55  67 NE10      30.25R
ORD            CLEAR     64  56  75 N5        30.22R
THEDFORD       CLEAR     69  52  54 NE3       30.28R
$$

NEZ041-046>049-061>064-073>077-083>087-280400-
SOUTH CENTRAL NEBRASKA

CITY           SKY/WX    TMP DP  RH WIND       PRES   REMARKS
GRAND ISLAND   CLEAR     68  60  75 NE6       30.21R
AURORA         CLEAR     67  62  85 N5        30.20R
HASTINGS       CLEAR     70  58  65 CALM      30.21R
HEBRON         CLEAR     67  60  76 CALM      30.18R
HOLDREGE       CLEAR     68  58  71 CALM      30.23R
KEARNEY *      CLEAR     66  55  68 N7        30.23R
YORK           CLEAR     68  63  83 NE5       30.20R
$$

NEZ011>018-030>034-042>045-280400-
NORTHEAST NEBRASKA

CITY           SKY/WX    TMP DP  RH WIND       PRES   REMARKS
NORFOLK        CLEAR     68  57  68 N14       30.20R
ALBION         CLEAR     66  58  73 N6        30.22R
BLAIR          CLEAR     69  56  61 NW9       30.16R
COLUMBUS *     CLEAR     66  57  72 N7        30.19R
FREMONT        CLEAR     68  58  71 NW5       30.18R
WAYNE          CLEAR     64  58  80 N7        30.21R
$$

NEZ050>053-065>068-078-088>093-280400-
SOUTHEAST NEBRASKA

CITY           SKY/WX    TMP DP  RH WIND       PRES   REMARKS
LINCOLN        CLEAR     71  56  58 N5        30.18R
OMAHA EPPLEY   PTCLDY    67  57  70 N7        30.15R
BEATRICE       CLEAR     67  60  77 NE6       30.17R
NEBRASKA CITY  CLEAR     67  56  67 N7        30.15R
PLATTSMOUTH    CLEAR     67  55  64 NW6       30.16R
$$

NEZ044-045-051>053-067-280400-
OMAHA AREA

CITY           SKY/WX    TMP DP  RH WIND       PRES   REMARKS
OMAHA EPPLEY   PTCLDY    67  57  70 N7        30.15R
BLAIR          CLEAR     69  56  61 NW9       30.16R
FREMONT        CLEAR     68  58  71 NW5       30.18R
MILLARD        CLEAR     72  58  62 NW5       30.15R
OFFUTT AFB     CLEAR     68  59  71 NW7       30.14R
PLATTSMOUTH    CLEAR     67  55  64 NW6       30.16R
WAHOO          FAIR      66  60  80 NW5       30.17R
$$


USA.gov is the U.S. government's official web portal to all federal, state and local government web resources and services.